Presure
185 198 184 175 118 144 188 150 199 178 138 152 172 196 207 130 130 126 124 128 214 211 202 202 184 186 179 183 184 172 190 203 194 166 210 176 190 202 207 200 197 222 230 232 221 228 239
176 188 184 185 189 146 149 166 128 120 141 169 127 206 136 172 157 136 125 190 188 184 119 188 168 171 193 217 202 175 225 231 208 150 197 193 173 183 190 204 218 219 228 230 233 233 234
189 196 191 185 183 194 148 136 131 189 123 119 125 154 203 183 184 192 192 191 166 200 172 180 228 162 230 223 225 217 215 238 230 228 228 184 201 200 223 284 414 406 434 431 423 459 360
144 124 131 183 190 188 163 190 137 122 180 172 116 172 187 184 175 186 166 140 201 186 190 198 189 199 201 218 232 220 234 235 230 226 222 208 212 239 372 364 358 351 376 426 411 393 425
202 197 200 198 183 200 203 187 119 172 175 129 168 167 168 183 195 193 188 199 168 182 202 161 201 193 191 191 200 215 221 230 227 222 204 210 338 361 343 211 352 345 355 363 407 391 378
207 204 210 203 203 206 204 198 175 191 133 195 128 156 168 197 164 154 157 122 150 192 207 202 200 200 217 219 203 229 215 225 222 206 219 270 357 334 340 327 324 347 350 350 364 408 381
206 204 202 203 199 201 202 192 189 193 110 197 194 124 157 181 138 124 205 196 202 198 186 206 201 199 200 164 238 235 226 219 204 219 217 196 264 326 322 309 309 311 339 353 363 388 388
204 215 218 224 216 209 200 214 208 204 201 196 141 165 163 193 193 149 197 190 192 202 170 150 181 182 226 225 231 224 216 210 195 213 367 189 338 325 314 299 295 303 308 306 318 346 424
238 224 215 211 211 215 212 212 195 206 201 197 195 190 174 194 158 156 194 202 188 140 196 182 214 221 223 214 226 217 215 190 219 222 360 362 327 312 308 296 284 287 293 300 221 302 313
240 231 229 212 214 212 205 222 211 208 208 215 197 194 195 195 197 189 193 199 174 194 196 199 201 226 157 208 216 213 210 198 220 298 323 362 327 317 308 290 287 288 282 295 298 302 305
236 243 204 242 223 210 211 215 206 218 213 205 196 217 201 196 184 194 193 193 193 191 193 153 216 202 204 198 214 212 198 207 171 300 371 326 326 312 294 292 293 279 286 291 284 291 295
224 232 227 245 251 215 203 214 215 221 207 225 223 194 204 210 197 193 194 201 195 192 203 198 213 197 207 179 210 205 193 208 203 207 323 343 321 314 299 293 285 277 271 277 287 288 293
228 235 231 257 189 244 229 205 215 217 218 211 174 220 218 203 211 207 204 203 154 204 197 197 205 213 206 209 204 192 197 207 214 173 308 349 327 314 306 293 281 285 284 288 281 285 307
238 218 219 240 239 231 240 233 228 222 216 218 211 182 208 221 204 205 202 206 207 205 207 205 213 218 200 209 203 190 195 202 229 259 305 323 332 314 304 304 286 276 278 290 288 289 300
243 232 239 238 238 223 243 241 224 238 241 220 219 196 204 214 221 220 204 203 204 205 208 211 218 217 199 207 198 189 194 202 248 290 307 322 337 332 303 305 300 281 277 291 296 298 299
230 224 230 243 230 230 249 242 237 259 238 249 223 220 214 218 218 189 208 208 186 164 210 211 212 195 191 202 195 189 192 199 235 294 312 324 319 341 328 301 309 299 283 287 280 294 268
245 230 240 238 242 250 234 226 247 236 250 243 249 227 221 220 212 219 204 208 207 126 203 167 212 210 195 201 196 191 197 199 234 292 315 343 327 340 339 305 314 282 282 284 295 285 105
261 244 254 241 235 246 242 241 228 248 250 252 249 239 244 227 229 214 216 206 200 201 207 206 208 210 200 197 192 192 194 194 229 287 314 354 320 321 336 306 321 275 281 287 299 268 298
257 252 249 239 233 234 250 243 240 239 190 218 248 252 245 245 223 214 199 215 208 208 207 200 212 205 204 193 189 189 189 196 226 248 315 342 302 325 356 307 323 280 289 291 115 294 292
318 301 326 313 260 259 259 266 249 243 231 237 208 247 248 253 245 222 212 206 207 216 207 208 212 201 189 190 186 187 192 196 216 238 313 325 309 328 316 318 321 286 288 243 273 297 289
409 418 462 463 306 295 285 246 246 246 244 233 245 244 256 245 258 259 224 201 207 212 205 208 213 197 198 193 185 187 194 198 210 228 247 323 315 310 324 330 316 306 278 296 263 285 270
374 379 399 517 550 266 297 260 254 238 247 243 235 237 240 249 244 231 226 195 208 214 197 210 213 191 194 188 181 183 190 191 208 220 240 322 323 317 338 326 212 298 128 295 279 287 277
392 374 396 391 442 513 273 309 260 252 248 243 244 239 236 249 245 258 275 204 207 214 187 211 215 201 193 189 183 183 191 187 205 217 233 263 329 323 314 331 256 325 291 256 282 278 286
374 358 365 372 399 419 326 268 290 256 239 248 255 243 239 251 262 258 268 214 202 210 211 213 203 201 197 190 185 191 189 196 199 213 219 240 335 334 321 315 333 316 305 304 286 289 279
355 346 338 366 426 425 351 261 265 281 250 258 249 268 241 250 263 256 269 211 200 211 208 210 200 199 197 188 183 190 190 196 195 206 219 231 253 343 329 317 315 304 305 310 293 300 287
334 364 356 370 378 395 327 293 247 270 270 242 251 229 221 231 240 248 267 215 206 214 164 211 199 202 197 188 183 186 185 186 196 200 210 219 235 263 353 321 343 324 311 154 150 166 256
329 342 322 350 431 347 329 320 271 251 259 272 288 299 294 228 241 250 260 213 207 210 210 210 198 207 199 187 183 186 188 198 187 194 205 212 219 241 267 343 298 299 295 157 157 278 165
337 339 318 339 426 312 295 294 284 267 257 260 280 277 279 286 289 257 265 217 209 197 207 211 191 208 196 187 183 188 187 191 187 193 198 205 212 227 242 271 335 347 314 302 262 303 300
327 339 320 349 320 294 284 300 291 253 246 245 257 256 267 290 278 268 266 208 212 212 209 212 194 209 199 188 180 187 190 188 192 200 193 198 207 208 222 237 255 347 315 310 223 280 198
Wind_Speed
58 61 56 49 46 55 50 50 43 50 50 50 42 41 43 43 40 40 38 39 53 52 54 55 54 56 59 61 61 58 65 66 67 58 72 65 68 74 78 77 77 84 87 90 85 87 91
58 60 60 58 56 51 51 55 50 45 41 47 45 41 44 44 43 39 41 50 51 52 36 53 52 53 61 66 64 61 67 70 70 54 72 71 62 70 75 84 88 90 91 94 94 92 91
66 66 64 65 59 60 51 51 50 51 47 43 45 54 44 51 50 49 50 51 53 51 54 55 52 46 55 60 63 67 69 67 71 76 82 67 79 83 92 76 35 38 44 52 52 52 91
61 55 57 65 67 63 57 60 59 50 52 52 42 55 51 53 54 55 55 46 49 55 54 52 54 55 57 54 58 62 65 68 71 76 79 80 83 78 42 43 46 48 47 39 46 57 52
80 77 77 72 66 71 68 63 50 54 59 51 58 58 52 54 56 58 58 55 53 49 54 53 55 59 63 64 61 62 66 69 72 74 73 81 52 42 44 66 38 43 43 37 32 52 63
73 75 74 76 73 70 70 71 63 63 49 62 49 52 53 58 57 49 49 40 47 57 52 56 54 50 55 60 63 64 68 70 73 69 77 70 39 42 33 36 40 34 34 30 33 32 57
75 76 75 75 78 75 74 72 69 70 45 67 63 48 55 61 47 44 57 60 56 57 51 55 50 52 54 53 63 63 67 71 66 75 77 45 51 38 31 35 36 40 30 27 29 30 40
72 69 73 75 77 75 74 73 77 75 71 69 53 58 57 63 62 50 60 56 58 58 51 45 52 58 58 56 59 62 65 68 65 75 52 60 36 32 32 33 32 37 24 29 38 36 25
68 73 75 76 74 75 76 74 76 73 75 71 70 69 63 66 55 52 62 62 59 45 58 52 58 56 55 56 58 62 65 58 74 79 51 31 36 34 31 31 30 27 21 20 13 21 29
61 67 71 75 77 78 76 76 77 76 74 76 75 72 73 70 69 63 66 64 54 61 58 56 56 59 44 55 58 61 64 62 73 81 46 27 32 31 31 30 32 29 22 23 23 24 23
64 62 76 75 79 80 81 79 77 78 77 75 73 72 74 73 62 66 65 66 65 58 55 47 59 48 52 57 57 60 56 65 56 79 37 48 30 29 33 29 27 23 24 23 19 16 14
66 67 70 70 71 82 80 82 80 81 76 74 74 71 71 74 71 68 68 70 68 61 64 58 55 48 52 53 56 60 52 65 66 56 67 40 37 30 31 27 28 25 25 23 24 25 12
71 72 70 72 65 73 83 80 84 85 81 76 64 71 72 71 69 69 68 68 51 68 60 56 48 48 49 49 55 54 56 63 68 48 68 43 36 34 32 30 30 25 22 24 23 20 19
78 74 72 75 74 73 77 78 89 87 85 82 76 67 68 68 69 67 65 66 66 65 64 60 53 47 46 46 53 49 53 60 72 64 66 51 40 35 33 31 28 26 24 27 23 19 19
87 82 80 79 77 75 83 80 77 84 86 89 81 71 70 67 64 65 63 64 63 62 63 58 52 46 45 43 49 49 53 59 71 71 65 52 41 32 31 29 30 27 24 24 20 20 5
85 80 79 84 79 80 88 86 80 78 86 82 89 80 71 69 64 55 59 62 56 50 58 56 45 43 44 42 47 47 51 57 69 69 64 53 44 33 28 28 28 27 22 18 16 9 14
98 90 92 90 85 88 84 80 89 83 80 84 81 87 78 69 64 59 59 59 60 39 56 46 43 40 41 41 43 45 51 55 66 68 64 51 42 36 24 25 23 17 19 15 12 12 9
105 102 104 93 89 90 90 88 86 89 84 76 80 81 84 79 67 59 58 59 61 56 54 51 39 39 36 37 41 43 48 49 62 67 64 52 44 38 23 21 17 17 19 14 12 7 2
105 105 103 99 96 94 97 92 93 89 70 72 81 78 81 82 65 62 59 54 61 59 52 48 39 37 32 35 38 39 42 50 61 69 62 54 49 35 21 18 13 15 15 10 7 11 5
113 109 111 112 103 105 104 105 96 90 87 87 71 78 76 73 77 63 60 55 57 57 50 46 35 35 33 32 34 37 42 47 57 65 61 53 47 36 26 16 12 13 12 10 1 13 13
62 61 53 65 105 103 110 92 95 95 94 88 85 78 74 73 69 69 57 57 57 54 49 43 35 33 29 28 29 35 40 45 52 57 66 52 45 40 23 17 12 12 10 13 4 10 17
57 56 50 39 57 96 106 105 100 86 95 94 85 79 75 72 72 64 57 62 57 53 47 44 35 35 30 29 25 28 34 37 47 51 61 51 43 38 22 17 9 8 12 11 8 8 18
27 39 27 38 48 69 100 108 106 98 100 86 89 82 79 78 70 67 56 65 56 52 47 43 36 31 30 26 23 24 30 31 43 48 55 59 42 36 31 18 7 5 6 11 12 15 16
34 37 32 37 48 68 82 100 106 103 89 82 91 87 81 79 73 67 60 61 59 51 46 44 35 30 27 24 22 27 26 31 36 43 46 56 42 34 28 21 10 2 5 13 14 13 13
39 42 50 42 44 76 82 102 102 107 90 86 86 90 80 77 72 68 59 62 59 52 46 43 37 31 28 25 20 24 23 25 29 37 42 50 59 34 27 21 11 5 5 19 16 8 6
43 40 36 31 52 86 89 104 92 106 94 76 86 74 69 66 64 65 59 65 61 53 42 47 38 34 31 26 20 19 16 18 25 30 34 40 49 59 27 21 13 4 8 20 20 18 14
45 31 30 19 42 83 79 83 101 92 92 92 80 76 78 63 72 66 59 70 62 53 49 49 40 37 32 27 20 18 16 18 17 22 28 33 36 50 55 20 17 10 9 21 18 12 17
45 33 37 28 44 87 89 89 96 101 89 80 75 71 70 72 74 70 63 71 65 53 52 51 42 39 35 29 21 20 13 15 14 17 21 25 30 38 47 49 17 12 8 14 12 8 8
48 39 43 40 88 90 89 87 92 81 88 83 76 68 68 67 74 68 63 72 66 59 55 53 45 42 38 32 23 21 16 13 16 16 15 18 23 25 33 42 52 12 15 18 11 10 14
Wind_Direction
262 263 263 256 243 251 262 250 266 256 250 252 261 266 267 253 257 258 260 262 271 273 273 274 276 277 278 279 280 279 282 281 281 279 281 278 285 284 283 279 276 274 271 269 263 261 258
259 262 264 263 264 251 252 249 248 247 257 260 256 270 256 262 261 263 262 268 271 273 269 276 276 278 282 283 282 281 285 284 282 281 285 285 285 284 282 281 279 276 271 267 264 260 256
261 262 261 264 262 265 250 246 247 262 252 254 254 253 269 262 264 270 270 269 264 275 269 272 284 279 289 286 285 284 284 287 284 283 283 289 288 287 285 284 300 296 294 273 263 254 250
250 245 247 259 263 264 256 261 249 244 265 260 252 259 263 263 266 264 261 264 273 270 273 277 277 280 285 291 297 289 294 291 288 287 289 290 290 290 310 308 302 294 301 297 263 254 249
259 261 263 262 258 265 262 261 242 258 256 248 253 261 261 264 266 265 268 270 267 275 276 274 280 282 283 286 290 290 292 295 293 293 294 294 306 317 313 284 311 306 303 299 291 255 247
255 256 259 262 260 260 258 260 256 259 253 260 253 256 261 269 259 265 264 261 270 272 281 280 281 290 296 297 291 302 295 298 298 298 302 308 315 319 328 325 329 323 311 307 314 269 246
257 257 256 257 260 258 256 257 257 259 246 263 262 248 257 260 257 258 274 271 278 278 277 285 285 290 294 289 308 305 302 301 302 308 309 298 304 322 327 322 337 340 358 8 338 295 246
255 254 256 257 258 255 255 255 255 256 257 258 252 253 258 264 266 261 271 274 272 281 274 276 280 284 303 305 310 305 303 304 306 312 333 297 319 323 322 317 332 344 0 2 6 6 284
251 255 257 258 258 258 257 254 256 254 254 257 260 260 260 263 261 261 272 276 272 268 282 277 294 302 303 302 311 306 307 307 316 319 332 306 317 317 320 321 320 338 340 0 346 1 349
261 256 254 257 258 257 256 257 256 254 252 254 256 257 261 262 265 265 270 274 271 278 283 287 292 304 285 301 308 308 310 314 321 333 323 320 321 313 320 315 314 324 320 348 2 346 356
260 265 254 254 253 256 257 257 256 257 256 252 253 253 254 259 258 266 268 272 275 277 283 277 296 297 298 298 309 310 312 319 313 334 331 332 317 310 316 309 319 319 333 327 329 349 349
263 263 257 264 262 252 255 257 258 258 255 256 254 253 253 253 259 261 266 269 272 276 282 287 294 294 299 296 309 310 316 323 325 317 339 328 321 304 307 305 305 309 306 320 324 318 326
266 265 262 267 253 259 253 254 256 258 257 254 250 253 252 254 255 259 263 268 263 274 279 284 293 299 299 305 306 309 318 325 327 314 338 327 319 312 295 297 304 308 309 306 301 313 312
268 264 263 263 261 259 261 255 251 254 255 257 252 251 253 251 254 257 260 264 267 273 277 282 290 299 296 306 306 309 319 326 331 332 338 336 321 310 310 290 291 299 307 317 298 313 324
265 266 264 263 262 256 262 261 253 253 251 255 255 250 251 252 252 251 256 261 265 269 275 281 290 298 295 305 306 311 321 329 336 337 338 338 321 309 303 299 282 298 302 313 315 307 286
267 266 264 263 260 258 260 261 257 257 251 250 252 252 251 252 250 247 253 256 260 263 272 279 289 288 292 302 306 315 324 329 337 338 339 339 334 309 299 300 287 282 300 300 305 289 246
267 267 262 261 258 259 256 255 259 255 254 250 250 252 251 250 247 248 249 254 259 252 270 265 287 289 291 302 307 316 322 329 339 341 341 343 334 322 305 306 290 304 300 289 272 275 216
262 264 260 259 257 254 253 254 252 254 254 252 250 249 248 251 249 245 248 249 256 260 266 274 282 285 289 299 305 316 322 331 339 344 342 346 340 336 314 309 286 304 294 283 234 280 339
262 260 257 256 254 255 252 248 250 250 244 245 249 247 248 248 246 240 243 246 251 257 261 267 277 279 285 295 304 317 324 332 340 352 345 346 344 338 319 307 288 295 288 281 236 210 159
264 259 253 250 246 247 248 246 244 246 246 249 243 246 247 248 245 243 240 243 248 255 256 264 271 271 275 289 303 316 323 333 338 351 346 346 346 342 336 306 283 274 287 255 225 178 158
257 253 255 241 243 238 238 238 239 240 240 244 245 247 247 247 247 243 235 238 244 248 252 259 264 263 274 288 299 311 323 332 337 349 356 349 347 347 337 322 290 227 281 242 247 192 176
252 246 248 251 224 231 229 233 235 234 237 238 242 243 246 245 245 240 229 236 239 244 247 254 256 254 264 278 296 311 323 334 338 347 357 352 350 349 345 338 251 235 244 237 216 196 187
233 244 239 237 220 205 227 225 235 233 234 234 238 239 242 245 243 245 239 229 234 238 239 248 249 249 259 271 289 309 321 333 338 346 356 1 355 352 353 355 261 253 205 199 203 163 192
222 231 225 229 209 191 212 224 227 230 232 229 233 235 239 239 239 242 239 221 230 232 236 242 235 240 249 265 283 301 316 330 340 346 355 2 360 357 358 4 11 49 189 180 203 193 190
221 220 232 223 218 190 190 219 223 227 230 228 231 230 235 237 236 238 234 219 229 227 230 235 229 234 240 254 272 290 311 327 339 344 356 1 12 4 3 8 6 74 168 183 191 185 153
230 228 229 235 197 183 194 213 224 226 230 226 223 226 225 228 231 233 232 216 224 222 230 232 225 233 233 244 259 280 305 325 335 343 354 2 11 19 10 21 31 55 164 209 225 193 158
227 221 202 230 221 178 187 196 217 224 227 230 230 228 230 222 228 229 226 215 220 217 223 228 220 231 227 238 249 267 292 307 332 339 351 2 8 20 24 21 25 51 83 210 216 164 206
222 217 186 209 212 178 190 197 208 219 224 226 226 216 219 224 222 225 223 210 217 215 218 226 218 228 224 233 239 255 272 294 315 331 345 357 7 18 25 30 35 72 107 124 171 181 170
216 216 185 195 176 184 194 193 200 214 221 225 219 216 217 220 217 222 217 214 213 212 216 225 215 226 221 228 232 244 254 279 296 310 336 349 4 9 20 31 35 76 96 113 178 125 211